Orbital Elements at Epoch 2459000.5 (2020-May-31.0) TDB
Reference: JPL 25 (heliocentric ecliptic J2000)
Element | Value | Uncertainty (1-sigma) | Units |
e | .1860395904092865 | 4.3118e-08 | |
a | 2.425405026338902 | 8.1271e-09 | au |
q | 1.974183668662188 | 1.0548e-07 | au |
i | 5.106255986531635 | 3.3143e-06 | deg |
node | 134.2719942109617 | 5.1725e-05 | deg |
peri | 273.1050994789865 | 5.2602e-05 | deg |
M | 240.2507343313715 | 9.3318e-06 | deg |
tp | 2459459.428675573923 (2021-Sep-01.92867557) | 3.641e-05 | TDB |
period | 1379.668779462875 3.78 | 6.9345e-06 1.899e-08 | d yr |
n | .260932192826856 | 1.3115e-09 | deg/d |
Q | 2.876626384015616 | 9.639e-09 | au |
|
| | Orbit Determination Parameters
Additional Information
|